FENGYUN 1C DEB

Satellite information

Favourite Embed

Satellite Type and Status

DEBRISIN ORBIT

Key statistics

Satellite FENGYUN 1C DEB at a glance.

Uptime

9658

Days in orbit

Revolutions

≈ 14.4

Per day

Orbit

SSO

Sun Synchronous Orbit

Inclination

98.9

Latest

Satellite identification and parameters

Extended collection of information and parameters for FENGYUN 1C DEB.

Object identification

Identified? True

Debris? True

Object name: FENGYUN 1C DEB

International designator: 1999-025EPD

Object number (NORAD): 37928

Object ID (CCSDS): 37928

Country: PEOPLES REPUBLIC OF CHINA (PRC)

Current information (Y/N): Y

RCS size: SMALL

Orbital parameters

Period: 100.224 minutes

Inclination: 98.9206 deg

SMA: 7147.283 km

Apoapsis: 820.312 km

Periapsis: 717.984 km

RAAN: 158.2888 deg

Eccentricy: 0.00715855

Argument of periapsis: 211.5304 deg

Mean anomaly: 148.1582 deg

Mean motion: 14.36783368 rev/day

Mean motion (dot): 0.00002407 rev/day2

B* drag term: 0.0008074769 1/REarth

Two-line elements (TLE)

Creation date: Oct. 13, 2025, 2:18 a.m.

Reference frame: TEME

Reference center: EARTH

Epoch: Oct. 12, 2025, 9:16 p.m. UTC

TLE line 0: 0 FENGYUN 1C DEB

TLE line 1: 1 37928U 99025EPD 25285.88612999 .00002407 00000-0 80748-3 0 9991

TLE line 2: 2 37928 98.9206 158.2888 0071586 211.5304 148.1582 14.36783368803186

Live tracking on map

Real-time ground track for satellite FENGYUN 1C DEB.

In-orbit conjunctions

A list of the most updated potential collisions computed for object FENGYUN 1C DEB.

Target Orbit TCA Probability of collision Miss distance Type
DMSP 5D-2 F14 DEB SSO 2025-09-09 23:36:55 0.0003140716 223.0 (m) DEBRIS
FENGYUN 1C DEB SSO 2024-11-13 11:59:44 0.0009882699 125.0 (m) DEBRIS
CZ-6A DEB LEO 2024-11-12 19:52:23 0.0001819832 358.0 (m) DEBRIS
COSMOS 374 DEB LEO 2024-11-09 15:33:51 0.0007446192 283.0 (m) DEBRIS
ADEOS SSO 2024-09-26 18:35:24 0.000108348 827.0 (m) PAYLOAD

Associated space launch

Chinese polar orbiting meteorological satellite

FENGYUN 1C DEB was lifted into orbit during the mission ‘Long March 4B | Feng Yun 1C’, on board a Long March 4B space rocket.

The launch took place on May 10, 1999, 1:33 a.m. from Launch Complex 7.

For more information about the launch, click the button.

Launch to space Long March 4B | Feng Yun 1C
Long March 4B | Feng Yun 1C

Agency: N/A

Status: Launch Successful

Launch date: May 10, 1999, 1:33 a.m. UTC

Rocket: Long March 4B

Launch pad: Launch Complex 7

Location: Taiyuan Satellite Launch Center, People's Republic of China

...

Latest news about this satellite

There are no fresh news available about this satellite. Check back as we update our databases every day.


Newsletter sign-up

Weekly statistics, charts and insights to help you stay on top of the space industry.